Weather WX

World > North America > United States > Missouri

Buffalo, Missouri Regional Weather

Lat: 37.64N, Lon: 93.09W
Wx Zone: MOZ080
Warning FLW WEATHER ALERT - (More Info. Click Here) Warning
Feedback

Buffalo, MO Regional Weather

Expires:201906170100;;185761
ASUS43 KLSX 170007
RWRMO 

WEATHER SUMMARY FOR MISSOURI
NATIONAL WEATHER SERVICE SPRINGFIELD MO
700 PM CDT SUN JUN 16 2019

NOTE: "FAIR" INDICATES FEW OR NO CLOUDS BELOW 12,000 FEET WITH NO
       SIGNIFICANT WEATHER AND/OR OBSTRUCTIONS TO VISIBILITY.
       CURRENT SKY AND/OR WEATHER CONDITIONS ARE NOT AVAILABLE FOR
       CHILLICOTHE AND FARMINGTON.


MOZ066>068-077>081-088>096-101>105-170100-
...SOUTHWEST MISSOURI...
  
CITY           SKY/WX    TMP DP  RH WIND       PRES   REMARKS
SPRINGFIELD    SUNNY     79  66  64 NW6       29.84R                  
6HR MIN TEMP:  74; 6HR MAX TEMP:  80;                                

JOPLIN         SUNNY     75  67  76 N3        29.84F                  
6HR MIN TEMP:  71; 6HR MAX TEMP:  78; 6HR PCP: TRACE;                

BRANSON        PTSUNNY   79  64  61 NW3       29.85R                  
               
$$

SKY/WX - Weather  TMP - Temperature  DP - Dew Point  RH - Relative Humidity
WIND - Wind Direction/Speed PRES - Barometric Pressure VSB - Visibility
WCI - Wind Chill Index E13G22 Wind - East Wind 13 mph/Gusts of 22 mph